This is the latest recevied weather packets stored in our database for station/object KQ7A. If no packets are shown the sender has not sent any weather packets the latest 10 day(s).
| Time | Temp. | Humidity | Pressure | Rain* | Wind** | Luminosity | Snow |
|---|---|---|---|---|---|---|---|
| 1788242174 | 17.22° C | 36% | 1015 hPa | 0 mm | - | 0 W/m² | - |
| 1788241871 | 17.78° C | 38% | 1014.7 hPa | 0 mm | - | 0 W/m² | - |
| 1788241568 | 17.78° C | 36% | 1015 hPa | 0 mm | - | 0 W/m² | - |
| 1788241263 | 18.33° C | 35% | 1015.1 hPa | 0 mm | - | 0 W/m² | - |
| 1788240959 | 18.89° C | 33% | 1015.2 hPa | 0 mm | - | 0 W/m² | - |
| 1788240655 | 18.89° C | 31% | 1015.1 hPa | 0 mm | - | 0 W/m² | - |
| 1788240349 | 18.33° C | 34% | 1014.7 hPa | 0 mm | - | 0 W/m² | - |
| 1788240050 | 17.78° C | 33% | 1014.7 hPa | 0 mm | - | 0 W/m² | - |
| 1788239745 | 17.78° C | 33% | 1014.6 hPa | 0 mm | - | 0 W/m² | - |
| 1788239444 | 17.22° C | 32% | 1014.7 hPa | 0 mm | - | 0 W/m² | - |
| 1788239139 | 17.22° C | 30% | 1015.1 hPa | 0 mm | - | 0 W/m² | - |
| 1788238839 | 16.67° C | 36% | 1015.1 hPa | 0 mm | - | 0 W/m² | - |
| 1788238534 | 16.67° C | 36% | 1014.7 hPa | 0 mm | - | 0 W/m² | - |
| 1788238229 | 16.67° C | 36% | 1014.8 hPa | 0 mm | - | 0 W/m² | - |
| 1788237925 | 17.78° C | 35% | 1014.7 hPa | 0 mm | - | 0 W/m² | - |
| 1788237621 | 17.22° C | 35% | 1014.6 hPa | 0 mm | - | 0 W/m² | - |
| 1788237316 | 17.22° C | 36% | 1015 hPa | 0 mm | - | 0 W/m² | - |
| 1788237012 | 17.78° C | 37% | 1014.7 hPa | 0 mm | - | 0 W/m² | - |
| 1788236711 | 18.33° C | 35% | 1014.7 hPa | 0 mm | - | 0 W/m² | - |
| 1788236406 | 18.89° C | 33% | 1014.5 hPa | 0 mm | - | 0 W/m² | - |
| 1788236101 | 18.89° C | 34% | 1015 hPa | 0 mm | - | 0 W/m² | - |
| 1788235796 | 18.33° C | 34% | 1015.1 hPa | 0 mm | - | 0 W/m² | - |
| 1788235491 | 18.89° C | 32% | 1014.6 hPa | 0 mm | - | 0 W/m² | - |
| 1788235189 | 18.89° C | 35% | 1014.7 hPa | 0 mm | - | 0 W/m² | - |
| 1788234888 | 18.89° C | 33% | 1014.7 hPa | 0 mm | - | 0 W/m² | - |
* Rain latest hour (hover to see other rain measurements)
** Current wind speed in m/s (hover to see current wind gust speed)